Weather History for Mount Pleasant, TX

Change the Weather History Date:

Monday, November 14, 2011

  Actual Average (KGGG) Record (KGGG)
Temperature  
Mean Temperature 76 °F 57 °F  
Max Temperature 82 °F 68 °F 89 °F (1955)
Min Temperature 69 °F 46 °F 22 °F (1907)
Degree Days  
Heating Degree Days 0 9  
Month to date heating degree days 96  
Since 1 July heating degree days 185  
Cooling Degree Days 10 1  
Month to date cooling degree days 17  
Year to date cooling degree days 2412  
Growing Degree Days 26 (Base 50)    
Moisture  
Dew Point 62 °F    
Average Humidity 67    
Maximum Humidity 83    
Minimum Humidity 48    
Precipitation  
Precipitation 0.00 in 0.16 in 1.25 in (1970)
Month to date precipitation 1.98  
Year to date precipitation 40.55  
Snow  
Snow 0.00 in - - ()
Month to date snowfall  
Since 1 July snowfall  
Since 1 September snowfall  
Snow Depth -    
Sea Level Pressure  
Sea Level Pressure 29.84 in    
Wind  
Wind Speed 13 mph (South)    
Max Wind Speed 20 mph    
Max Gust Speed 26 mph    
Visibility 10 miles    
Events      
T = Trace of Precipitation, MM = Missing Value Source: NWS Daily Summary

Daily Weather History Graph

Daily Weather History Graph

Search for Another Location

Airport:

Trip Planner

Search our weather history database for the weather conditions in past years. The results will help you decide how hot, cold, wet, or windy it might be!

Date:

Astronomy

Nov. 14, 2011 Rise Set
Actual Time 6:49 AM CST 5:18 PM CST
Civil Twilight 6:23 AM CST 5:44 PM CST
Nautical Twilight 5:53 AM CST 6:14 PM CST
Astronomical Twilight 5:24 AM CST 6:44 PM CST
Moon 8:29 PM CST (11/14) 10:04 AM CST (11/14)
Length of Visible Light 11h 21m
Length of Day
10h 29m
Waning Gibbous, 86% of the Moon is Illuminated
Nov 14
Waning Gibbous
Nov 18
Last Quarter
Nov 25
New
Dec 2
First Quarter
Dec 10
Full

Hourly Weather History & Observations

Time (CST) Temp. Heat Index Dew Point Humidity Pressure Visibility Wind Dir Wind Speed Gust Speed Precip Events Conditions
12:15 AM 69.8 °F - 64.4 °F 83% 29.84 in 10.0 mi South 12.7 mph - N/A   Clear
12:35 AM 69.8 °F - 64.4 °F 83% 29.84 in 10.0 mi South 12.7 mph 18.4 mph N/A   Clear
12:55 AM 69.8 °F - 64.4 °F 83% 29.85 in 10.0 mi South 16.1 mph 21.9 mph N/A   Clear
1:15 AM 71.6 °F - 64.4 °F 78% 29.85 in 10.0 mi South 16.1 mph 21.9 mph N/A   Scattered Clouds
1:35 AM 71.6 °F - 64.4 °F 78% 29.84 in 10.0 mi South 13.8 mph 20.7 mph N/A   Scattered Clouds
2:15 AM 71.6 °F - 64.4 °F 78% 29.85 in 10.0 mi South 15.0 mph 23.0 mph N/A   Scattered Clouds
2:35 AM 71.6 °F - 64.4 °F 78% 29.85 in 10.0 mi South 13.8 mph 19.6 mph N/A   Scattered Clouds
2:55 AM 71.6 °F - 64.4 °F 78% 29.85 in 10.0 mi South 15.0 mph 19.6 mph N/A   Scattered Clouds
3:15 AM 71.6 °F - 64.4 °F 78% 29.85 in 10.0 mi South 13.8 mph 24.2 mph N/A   Scattered Clouds
3:35 AM 71.6 °F - 64.4 °F 78% 29.84 in 10.0 mi South 13.8 mph - N/A   Clear
3:55 AM 71.6 °F - 64.4 °F 78% 29.84 in 10.0 mi South 15.0 mph 18.4 mph N/A   Scattered Clouds
4:15 AM 71.6 °F - 64.4 °F 78% 29.84 in 10.0 mi South 12.7 mph 20.7 mph N/A   Scattered Clouds
4:35 AM 71.6 °F - 64.4 °F 78% 29.84 in 10.0 mi South 12.7 mph 19.6 mph N/A   Scattered Clouds
4:55 AM 69.8 °F - 64.4 °F 83% 29.84 in 10.0 mi South 12.7 mph - N/A   Scattered Clouds
5:15 AM 69.8 °F - 64.4 °F 83% 29.85 in 10.0 mi South 11.5 mph - N/A   Scattered Clouds
5:35 AM 69.8 °F - 64.4 °F 83% 29.85 in 10.0 mi South 10.4 mph 17.3 mph N/A   Scattered Clouds
5:55 AM 69.8 °F - 64.4 °F 83% 29.85 in 10.0 mi South 11.5 mph 17.3 mph N/A   Scattered Clouds
6:15 AM 69.8 °F - 64.4 °F 83% 29.85 in 10.0 mi South 11.5 mph - N/A   Scattered Clouds
6:35 AM 69.8 °F - 64.4 °F 83% 29.85 in 10.0 mi South 10.4 mph - N/A   Scattered Clouds
6:55 AM 69.8 °F - 64.4 °F 83% 29.85 in 7.0 mi South 10.4 mph - N/A   Scattered Clouds
7:15 AM 69.8 °F - 64.4 °F 83% 29.86 in 7.0 mi South 11.5 mph 16.1 mph N/A   Scattered Clouds
7:55 AM 71.6 °F - 64.4 °F 78% 29.87 in 10.0 mi South 8.1 mph - N/A   Scattered Clouds
8:15 AM 73.4 °F - 64.4 °F 73% 29.88 in 10.0 mi SSW 12.7 mph 16.1 mph N/A   Scattered Clouds
8:35 AM 73.4 °F - 64.4 °F 73% 29.88 in 10.0 mi South 12.7 mph 17.3 mph N/A   Mostly Cloudy
8:55 AM 73.4 °F - 62.6 °F 69% 29.89 in 10.0 mi SSW 16.1 mph 20.7 mph N/A   Mostly Cloudy
9:15 AM 73.4 °F - 62.6 °F 69% 29.90 in 10.0 mi SW 13.8 mph - N/A   Mostly Cloudy
9:35 AM 73.4 °F - 62.6 °F 69% 29.90 in 10.0 mi South 19.6 mph 25.3 mph N/A   Mostly Cloudy
9:55 AM 73.4 °F - 62.6 °F 69% 29.90 in 10.0 mi SSW 15.0 mph 20.7 mph N/A   Mostly Cloudy
10:15 AM 75.2 °F - 62.6 °F 65% 29.90 in 10.0 mi SSW 17.3 mph 20.7 mph N/A   Mostly Cloudy
10:35 AM 77.0 °F - 62.6 °F 61% 29.89 in 10.0 mi South 15.0 mph 23.0 mph N/A   Scattered Clouds
10:55 AM 78.8 °F - 62.6 °F 57% 29.89 in 10.0 mi SSW 15.0 mph 26.5 mph N/A   Scattered Clouds
11:15 AM 77.0 °F - 60.8 °F 57% 29.88 in 10.0 mi SSW 12.7 mph 26.5 mph N/A   Scattered Clouds
11:35 AM 78.8 °F - 60.8 °F 54% 29.87 in 10.0 mi SSW 13.8 mph 23.0 mph N/A   Mostly Cloudy
11:55 AM 78.8 °F - 60.8 °F 54% 29.85 in 10.0 mi SW 12.7 mph 19.6 mph N/A   Mostly Cloudy
12:15 PM 80.6 °F 81.5 °F 60.8 °F 51% 29.84 in 10.0 mi SSW 18.4 mph 21.9 mph N/A   Scattered Clouds
12:35 PM 80.6 °F 81.5 °F 60.8 °F 51% 29.82 in 10.0 mi SSW 13.8 mph 21.9 mph N/A   Scattered Clouds
12:55 PM 80.6 °F 81.5 °F 60.8 °F 51% 29.82 in 10.0 mi SSW 16.1 mph 24.2 mph N/A   Scattered Clouds
1:15 PM 80.6 °F 81.5 °F 60.8 °F 51% 29.81 in 10.0 mi SSW 13.8 mph - N/A   Scattered Clouds
1:35 PM 82.4 °F 82.9 °F 60.8 °F 48% 29.81 in 10.0 mi SSW 15.0 mph 19.6 mph N/A   Scattered Clouds
1:55 PM 80.6 °F 81.5 °F 60.8 °F 51% 29.80 in 10.0 mi South 12.7 mph 18.4 mph N/A   Mostly Cloudy
2:15 PM 80.6 °F 81.5 °F 60.8 °F 51% 29.80 in 10.0 mi SSW 12.7 mph - N/A   Scattered Clouds
2:35 PM 80.6 °F 81.1 °F 59.0 °F 48% 29.79 in 10.0 mi SSW 9.2 mph - N/A   Scattered Clouds
2:55 PM 80.6 °F 81.1 °F 59.0 °F 48% 29.79 in 10.0 mi South 10.4 mph - N/A   Scattered Clouds
3:15 PM 80.6 °F 81.1 °F 59.0 °F 48% 29.79 in 10.0 mi SSW 11.5 mph - N/A   Clear
3:35 PM 80.6 °F 81.1 °F 59.0 °F 48% 29.78 in 10.0 mi South 10.4 mph - N/A   Clear
3:55 PM 80.6 °F 81.1 °F 59.0 °F 48% 29.78 in 10.0 mi SSW 10.4 mph - N/A   Clear
4:15 PM 80.6 °F 81.1 °F 59.0 °F 48% 29.78 in 10.0 mi South 10.4 mph - N/A   Clear
4:35 PM 78.8 °F - 59.0 °F 51% 29.78 in 10.0 mi South 8.1 mph - N/A   Clear
4:55 PM 77.0 °F - 59.0 °F 54% 29.78 in 10.0 mi SSE 4.6 mph - N/A   Clear
5:35 PM 73.4 °F - 59.0 °F 61% 29.78 in 10.0 mi SE 5.8 mph - N/A   Clear
5:55 PM 73.4 °F - 59.0 °F 61% 29.79 in 10.0 mi SE 6.9 mph - N/A   Clear
6:15 PM 71.6 °F - 59.0 °F 64% 29.79 in 10.0 mi SE 6.9 mph - N/A   Clear
6:35 PM 71.6 °F - 60.8 °F 69% 29.78 in 10.0 mi SE 9.2 mph - N/A   Clear
6:55 PM 71.6 °F - 60.8 °F 69% 29.79 in 10.0 mi SSE 6.9 mph - N/A   Clear
7:15 PM 71.6 °F - 60.8 °F 69% 29.79 in 10.0 mi SSE 5.8 mph - N/A   Clear
7:35 PM 71.6 °F - 59.0 °F 64% 29.80 in 10.0 mi SSE 5.8 mph - N/A   Clear
7:55 PM 69.8 °F - 60.8 °F 73% 29.80 in 10.0 mi SSE 6.9 mph - N/A   Clear
8:15 PM 71.6 °F - 59.0 °F 64% 29.79 in 10.0 mi SE 8.1 mph - N/A   Clear
8:35 PM 71.6 °F - 60.8 °F 69% 29.80 in 10.0 mi SSE 8.1 mph - N/A   Clear
8:55 PM 71.6 °F - 60.8 °F 69% 29.80 in 10.0 mi SSE 8.1 mph - N/A   Clear
9:15 PM 71.6 °F - 60.8 °F 69% 29.80 in 10.0 mi SSE 8.1 mph - N/A   Clear
9:35 PM 71.6 °F - 60.8 °F 69% 29.80 in 10.0 mi SSE 10.4 mph - N/A   Clear
9:55 PM 71.6 °F - 60.8 °F 69% 29.80 in 10.0 mi SSE 10.4 mph - N/A   Scattered Clouds
10:15 PM 71.6 °F - 60.8 °F 69% 29.80 in 10.0 mi SSE 13.8 mph 17.3 mph N/A   Scattered Clouds
10:35 PM 71.6 °F - 60.8 °F 69% 29.80 in 10.0 mi SSE 11.5 mph - N/A   Mostly Cloudy
10:55 PM 71.6 °F - 60.8 °F 69% 29.80 in 10.0 mi SSE 10.4 mph - N/A   Scattered Clouds
11:15 PM 71.6 °F - 60.8 °F 69% 29.80 in 10.0 mi SSE 10.4 mph - N/A   Scattered Clouds
11:35 PM 69.8 °F - 60.8 °F 73% 29.80 in 10.0 mi SSE 10.4 mph - N/A   Scattered Clouds
11:55 PM 69.8 °F - 62.6 °F 78% 29.79 in 10.0 mi SSE 10.4 mph - N/A   Clear